This is the latest recevied weather packets stored in our database for station/object K5GHS-1. If no packets are shown the sender has not sent any weather packets the latest 10 day(s).
| Time | Temp. | Humidity | Pressure | Rain* | Wind** | Luminosity | Snow |
|---|---|---|---|---|---|---|---|
| 1777583658 | 17.22° C | 76% | 1012 hPa | 0 mm | - | 46 W/m² | - |
| 1777583358 | 17.22° C | 76% | 1011.7 hPa | 0 mm | - | 45 W/m² | - |
| 1777583052 | 17.22° C | 75% | 1012 hPa | 0 mm | - | 65 W/m² | - |
| 1777582750 | 17.22° C | 75% | 1011.9 hPa | 0 mm | - | 101 W/m² | - |
| 1777582445 | 17.22° C | 75% | 1011.8 hPa | 0 mm | - | 127 W/m² | - |
| 1777582145 | 16.67° C | 75% | 1011.6 hPa | 0 mm | - | 112 W/m² | - |
| 1777581844 | 16.67° C | 75% | 1011.8 hPa | 0 mm | - | 71 W/m² | - |
| 1777581544 | 16.67° C | 76% | 1011.8 hPa | 0 mm | - | 69 W/m² | - |
| 1777581239 | 16.67° C | 76% | 1011.7 hPa | 0 mm | - | 78 W/m² | - |
| 1777580938 | 16.67° C | 76% | 1011.8 hPa | 0 mm | - | 82 W/m² | - |
| 1777580633 | 16.67° C | 75% | 1012.1 hPa | 0 mm | - | 85 W/m² | - |
| 1777580329 | 16.67° C | 75% | 1012.1 hPa | 0 mm | - | 85 W/m² | - |
| 1777580026 | 16.67° C | 75% | 1012 hPa | 0 mm | - | 94 W/m² | - |
| 1777579722 | 16.67° C | 75% | 1012.4 hPa | 0 mm | - | 72 W/m² | - |
| 1777579420 | 16.67° C | 75% | 1012.4 hPa | 0 mm | - | 65 W/m² | - |
| 1777579116 | 16.67° C | 76% | 1012.6 hPa | 0 mm | - | 47 W/m² | - |
| 1777578815 | 16.67° C | 76% | 1012.7 hPa | 0 mm | - | 42 W/m² | - |
| 1777578511 | 16.67° C | 77% | 1012.6 hPa | 0 mm | - | 37 W/m² | - |
| 1777578206 | 16.67° C | 76% | 1012.5 hPa | 0 mm | - | 54 W/m² | - |
| 1777577902 | 16.67° C | 76% | 1011.9 hPa | 0 mm | - | 72 W/m² | - |
| 1777577598 | 16.67° C | 77% | 1012.3 hPa | 0 mm | - | 87 W/m² | - |
| 1777577295 | 16.67° C | 76% | 1012.3 hPa | 0 mm | - | 88 W/m² | - |
| 1777576991 | 16.67° C | 77% | 1012.3 hPa | 0 mm | - | 87 W/m² | - |
| 1777576688 | 17.22° C | 77% | 1012.2 hPa | 0 mm | - | 78 W/m² | - |
| 1777576387 | 16.67° C | 76% | 1012.2 hPa | 0 mm | - | 83 W/m² | - |
* Rain latest hour (hover to see other rain measurements)
** Current wind speed in m/s (hover to see current wind gust speed)